Theta_e
340 354 364 363 364 364 365 364 363 362 361 361 359 358 359 359 358 358 358 358 359 359 357 354 350 352 352 351 351 352 351 351 350 348 349 350 343 346 348 345 348 343 355
343 354 363 363 363 361 364 364 363 362 361 360 359 359 358 358 357 357 357 358 359 356 352 350 350 351 351 348 348 351 351 351 352 354 353 353 349 349 349 346 348 347 354
342 355 359 363 363 361 363 363 362 361 361 360 359 357 357 356 355 355 357 359 356 352 351 349 348 348 348 347 347 349 352 353 355 357 358 348 340 351 348 350 350 355 357
344 351 356 362 362 363 362 362 361 361 361 359 357 357 356 356 355 354 356 356 353 350 348 348 347 346 346 346 347 349 352 355 356 357 348 348 341 353 351 349 351 348 350
343 346 359 363 362 362 361 361 361 361 360 357 357 356 355 355 354 355 356 355 351 348 348 347 345 344 345 347 348 348 348 351 353 347 337 341 338 349 348 346 349 348 347
342 346 361 363 362 362 361 361 361 360 359 357 356 355 355 353 353 354 354 352 349 347 347 345 343 343 345 346 346 345 346 347 346 335 333 337 340 348 345 342 342 343 346
343 353 356 363 362 362 361 360 360 360 359 358 355 354 353 353 352 351 351 349 348 346 344 343 343 345 345 344 343 343 342 343 338 334 334 334 336 344 340 340 340 340 341
350 352 351 362 362 361 361 361 361 360 360 358 357 355 354 353 351 350 352 349 348 347 346 345 345 346 344 343 342 341 341 341 337 333 335 335 341 341 339 338 337 338 338
352 350 348 352 359 362 362 361 361 361 360 359 357 356 355 354 352 351 353 352 350 349 350 348 347 344 343 342 342 342 342 342 336 333 334 334 337 337 336 335 335 336 336
349 349 345 350 352 353 354 361 361 360 359 359 357 356 355 354 353 353 353 354 353 352 350 347 344 342 342 344 344 345 343 343 335 333 334 332 335 334 334 333 334 335 336
342 346 345 346 347 349 348 355 360 358 358 358 357 356 353 348 347 347 350 354 355 353 349 346 343 343 344 344 344 345 343 336 334 333 331 334 332 332 332 332 332 333 334
335 344 344 344 346 347 347 354 353 353 353 353 351 351 349 345 349 348 353 356 355 350 348 346 345 344 342 336 338 345 337 336 332 329 329 332 330 329 329 329 330 331 332
334 339 343 346 348 344 346 354 351 351 351 351 352 354 352 349 350 347 350 348 347 347 343 342 341 338 338 339 337 334 333 331 329 327 331 329 327 327 327 327 328 329 329
333 337 340 346 354 352 351 353 351 347 351 350 351 356 357 354 352 349 345 347 346 345 343 340 340 342 338 336 333 330 332 329 327 325 327 329 325 324 323 323 324 326 327
333 337 338 344 351 356 360 351 354 352 350 351 354 354 353 350 349 350 347 346 343 338 341 343 340 334 332 331 330 331 329 328 326 324 324 334 326 324 323 323 323 323 324
337 338 339 343 356 351 358 364 354 359 357 352 352 352 353 354 351 352 350 349 345 344 344 336 334 332 331 329 331 332 329 327 325 324 322 322 331 327 325 324 322 321 322
341 344 347 346 352 357 356 360 360 356 348 351 350 355 353 353 352 353 349 347 347 343 339 336 333 333 331 332 331 327 325 325 322 320 322 320 322 328 326 325 322 321 322
342 346 348 339 350 355 355 356 354 352 354 353 353 354 351 351 351 350 347 345 341 340 336 333 332 328 331 328 324 324 323 323 319 319 320 320 321 319 326 326 325 322 323
348 348 348 351 347 352 360 354 354 356 355 355 356 354 351 347 346 349 347 345 340 337 335 332 330 331 326 324 322 320 320 317 317 318 321 321 320 321 320 323 327 323 325
348 353 354 355 359 355 355 357 352 351 353 355 356 354 349 347 344 346 346 340 336 335 332 332 333 329 326 324 318 315 317 319 318 319 320 321 319 321 321 320 319 318 329
349 358 357 359 361 361 354 350 350 347 351 352 354 348 348 348 344 345 342 338 337 333 333 334 330 326 323 321 315 314 314 316 317 319 321 318 317 317 318 318 319 317 317
352 356 361 364 367 363 359 357 356 352 351 353 348 348 347 347 345 342 341 337 337 334 334 331 328 323 319 318 312 311 307 310 316 314 315 316 316 316 317 316 315 315 317
356 361 362 367 370 364 369 367 363 362 355 349 344 343 344 343 341 340 337 338 335 333 327 325 323 320 314 315 318 312 305 303 307 311 311 313 316 314 315 315 315 317 315
354 358 360 362 366 367 366 360 357 349 345 348 342 343 341 340 339 337 337 333 328 327 324 323 321 319 318 312 314 315 314 311 302 301 309 311 313 312 310 315 312 314 312
353 354 360 361 361 363 361 362 352 353 349 348 342 340 338 340 340 334 329 326 325 323 323 321 321 321 317 315 311 310 309 310 310 305 302 305 309 308 309 309 311 312 312
348 351 354 357 358 359 357 359 354 351 350 344 339 337 337 334 332 329 325 324 323 322 323 320 321 319 317 315 313 312 309 307 305 305 303 304 302 304 307 309 310 310 311
Wind_Speed
17 18 19 16 14 13 13 13 13 12 11 10 10 10 9 9 9 9 10 9 9 9 10 10 10 10 10 10 10 9 8 7 7 7 6 3 1 2 3 2 6 8 3
22 18 19 17 15 15 13 12 13 12 11 10 10 9 9 8 9 8 8 8 8 9 10 10 9 9 8 7 8 7 6 6 7 10 9 7 6 5 4 4 4 8 5
21 18 17 17 16 14 13 13 12 12 11 10 10 9 9 9 8 7 7 7 8 8 9 8 8 7 6 7 6 6 6 7 9 12 15 8 9 8 2 6 4 5 6
20 15 16 17 16 16 14 13 11 11 10 9 9 8 8 8 8 7 7 7 7 7 7 7 6 5 5 5 5 5 6 9 11 13 9 10 11 10 6 5 4 8 11
19 16 16 17 16 15 15 13 12 10 9 9 8 8 7 7 6 6 6 6 6 6 6 5 4 3 3 4 4 5 8 10 14 14 11 11 2 10 7 4 6 8 11
20 18 18 17 16 15 14 13 12 11 10 9 7 7 7 6 5 6 6 5 5 5 4 3 2 2 1 2 3 6 8 11 15 12 12 5 7 11 8 6 8 9 10
19 19 17 16 15 14 14 13 11 10 9 8 8 7 6 6 5 5 4 4 4 3 2 1 0 1 1 2 5 6 8 11 10 11 10 11 8 10 9 9 9 9 10
22 18 17 15 14 13 12 11 10 9 9 8 7 7 6 6 5 4 4 4 3 3 2 2 2 3 3 5 6 7 9 11 11 10 12 4 9 9 10 9 10 11 12
22 19 14 14 12 12 12 11 10 9 8 7 7 7 6 6 6 7 7 6 6 4 4 4 3 4 5 7 9 10 11 13 10 9 12 5 8 10 9 9 11 12 14
21 20 17 13 14 12 11 12 11 10 9 9 8 8 8 8 9 10 9 8 7 6 5 5 5 6 8 11 13 14 14 15 12 12 5 5 9 8 8 9 12 14 14
14 19 18 16 14 13 13 12 12 12 11 10 9 9 7 7 11 12 10 11 9 8 7 7 8 10 13 14 17 17 15 7 12 6 4 9 8 8 10 13 14 14 15
12 20 18 18 17 15 13 15 12 11 9 8 9 10 8 10 4 5 11 13 13 11 12 12 13 15 12 7 6 14 6 9 7 6 3 7 6 7 8 10 11 13 15
14 10 17 14 15 15 10 10 7 7 8 8 12 9 10 5 5 6 6 6 5 10 6 8 9 7 8 4 5 6 8 8 3 4 3 4 5 6 7 8 9 11 14
13 9 9 12 7 6 10 10 10 8 9 7 9 6 1 2 3 2 2 6 7 7 7 8 4 5 7 7 7 10 10 5 4 3 6 5 4 4 2 2 3 8 11
15 13 10 12 7 4 2 4 3 5 6 5 6 7 4 5 4 3 2 3 5 3 3 4 5 5 4 7 8 8 6 6 6 4 3 3 6 5 4 5 3 4 7
13 13 10 13 9 7 4 2 4 1 2 3 3 6 7 2 2 1 2 3 2 2 4 5 4 4 5 7 8 6 5 6 6 6 3 3 10 10 7 6 5 4 7
11 11 9 11 12 7 7 4 2 4 4 4 3 6 6 6 3 3 1 1 2 5 4 2 3 5 7 7 5 5 6 6 5 7 5 3 3 12 9 8 5 5 9
14 12 12 12 15 10 9 6 4 4 4 3 5 5 6 4 3 3 3 4 6 3 2 3 4 6 4 5 6 5 7 4 6 8 6 3 3 2 10 10 9 10 12
12 15 13 11 16 14 7 7 6 7 4 4 3 4 7 6 6 1 4 4 5 2 3 4 5 3 5 5 8 6 4 5 7 7 4 4 5 5 2 7 10 14 18
13 13 13 10 7 14 10 6 6 5 5 3 4 3 7 5 3 3 0 4 2 3 3 3 3 3 4 5 8 7 5 6 6 5 2 5 6 4 4 6 4 6 18
15 11 13 12 10 8 9 9 7 7 5 4 4 9 7 2 4 4 4 5 4 4 5 2 3 4 4 5 5 5 5 9 7 2 3 4 5 3 5 0 4 2 1
13 13 11 10 10 8 6 6 6 6 6 4 8 6 5 5 4 3 1 2 3 3 4 4 3 3 3 5 3 5 5 6 2 5 5 5 6 2 4 4 4 5 4
9 8 9 7 7 8 5 4 2 2 4 5 7 5 4 4 3 2 4 4 2 2 3 2 2 3 3 5 7 3 5 4 6 5 7 5 5 4 5 4 3 3 5
6 5 6 7 4 6 6 6 6 5 5 4 7 6 5 5 4 6 3 1 3 2 4 3 4 3 4 5 5 5 5 4 6 6 3 4 5 5 7 4 4 4 4
9 9 7 8 7 7 7 6 6 5 4 5 6 10 8 5 4 3 3 3 1 2 3 2 3 2 3 4 4 4 5 6 5 5 8 5 4 7 8 9 6 3 4
12 10 8 7 7 6 7 5 8 7 6 8 8 6 5 6 4 3 3 2 1 2 2 3 2 4 2 3 3 4 4 7 7 7 8 6 4 4 6 9 5 4 4
Wind_Direction
125 128 122 122 123 124 123 122 117 117 114 115 107 96 92 89 87 88 91 92 92 90 85 79 73 67 58 51 44 37 30 16 355 327 305 305 282 193 131 32 328 25 58
125 130 124 124 128 135 129 127 123 124 127 126 119 116 111 103 99 96 95 95 90 84 81 80 75 68 61 51 43 27 13 351 320 295 282 264 218 210 177 105 359 351 345
123 128 129 128 131 136 132 133 133 134 135 131 126 125 119 110 103 96 93 87 84 82 81 78 73 66 61 50 35 13 350 320 303 297 299 260 186 191 160 90 33 337 322
125 141 136 133 134 136 138 137 138 137 132 128 131 128 117 117 112 115 109 103 98 95 91 80 71 63 55 38 16 353 337 325 317 316 298 286 166 162 118 67 22 29 9
130 148 133 138 139 141 142 140 138 139 136 137 141 137 129 126 126 121 111 106 106 102 96 95 93 63 34 16 357 343 334 327 323 310 279 281 19 127 104 68 29 14 359
137 138 141 140 141 142 144 145 146 146 149 148 148 142 138 141 142 130 121 114 108 104 110 126 128 111 17 347 331 327 326 325 319 304 319 320 69 123 104 52 23 10 347
143 126 146 143 143 147 149 152 150 152 150 153 158 162 162 160 157 141 137 128 118 111 118 133 9 305 278 294 297 308 312 316 306 302 306 308 80 73 67 46 21 2 338
122 140 144 142 145 149 153 153 156 159 164 164 175 171 178 179 174 169 172 153 155 169 189 202 233 254 270 280 282 289 294 296 301 294 294 325 85 72 53 31 8 348 336
130 130 147 155 153 154 158 161 165 163 166 180 187 183 191 197 196 197 195 187 189 195 204 215 228 253 270 272 270 267 267 274 278 280 279 88 90 64 42 19 0 349 339
137 133 150 158 167 172 170 170 173 170 181 190 198 197 202 209 213 209 206 202 199 201 200 212 233 253 256 255 253 255 264 276 271 261 257 98 80 57 35 14 1 352 333
147 142 153 165 169 181 171 176 179 186 192 198 208 211 208 230 211 211 205 171 186 187 201 211 229 240 244 256 256 248 257 261 273 328 342 99 72 42 22 10 0 341 322
182 155 154 169 167 189 184 162 183 187 194 198 207 194 209 234 199 155 154 170 183 190 202 211 223 236 252 257 289 227 245 261 323 317 29 104 79 49 30 10 356 336 323
179 169 156 163 165 185 163 157 178 187 194 198 210 188 209 232 195 164 158 179 179 205 214 210 229 237 250 338 327 319 303 295 313 330 31 104 89 56 30 15 354 329 320
162 161 160 136 157 205 142 176 168 190 188 188 194 176 196 281 268 305 278 190 197 184 223 193 242 35 13 341 307 286 280 328 328 323 298 149 127 97 73 25 317 311 315
161 160 181 145 153 214 317 152 182 186 167 176 142 161 179 203 237 192 225 359 25 32 336 358 28 7 307 288 285 277 316 309 294 276 263 196 180 193 191 211 232 282 310
149 146 156 151 150 179 190 252 169 174 149 143 175 156 168 256 255 300 206 76 2 333 11 27 353 305 295 276 268 291 300 280 294 301 311 326 196 215 212 220 227 274 296
133 147 145 150 157 184 178 208 181 174 220 179 212 160 154 160 245 36 23 89 238 66 19 326 283 272 256 250 311 318 314 308 317 310 307 295 275 206 213 225 239 261 286
154 157 161 181 163 184 169 182 198 232 193 206 183 135 132 178 222 137 280 204 74 36 348 268 278 277 321 339 319 313 286 324 326 294 273 316 300 345 194 209 230 244 267
172 163 177 189 170 170 191 177 201 212 189 218 168 142 148 186 138 186 263 63 74 358 261 287 284 360 335 327 301 302 334 319 288 290 306 350 296 264 180 297 258 231 256
179 173 175 183 209 163 170 189 190 224 166 228 163 147 134 123 168 127 303 92 83 300 283 258 312 341 293 295 313 308 296 283 292 263 308 260 262 263 216 224 239 255 272
176 172 183 179 188 164 167 178 211 194 177 193 114 101 106 184 164 139 270 141 173 248 255 266 284 322 326 302 306 323 301 288 298 114 294 299 306 271 262 205 228 285 316
171 179 176 177 172 188 179 181 191 196 169 160 112 125 137 150 208 159 263 6 255 269 342 301 8 329 308 303 321 293 313 308 15 10 328 333 289 341 315 310 338 325 341
156 158 167 180 170 174 183 174 133 135 105 121 117 131 154 159 172 195 179 233 2 345 295 29 337 320 298 325 289 295 306 310 334 337 313 297 334 331 291 292 284 15 23
174 177 166 162 183 169 187 179 166 191 165 156 144 157 153 147 206 208 190 110 67 360 310 298 41 2 308 316 307 333 342 326 306 300 281 312 301 7 354 343 330 5 6
189 195 166 160 180 180 188 223 156 200 189 148 107 124 140 165 207 221 105 81 8 303 23 300 283 15 316 294 357 318 324 295 299 314 311 307 343 8 346 340 313 335 355
186 172 153 155 163 193 179 195 168 202 155 131 128 146 161 160 174 196 133 122 70 285 292 345 13 296 5 286 278 322 315 327 326 319 307 312 304 338 346 318 314 340 318